Weather History for KBFI - July, 2013

Change the Weather History Date:

Wednesday, July 24, 2013

  Actual Average Record
Temperature  
Mean Temperature 72 °F -  
Max Temperature 86 °F 75 °F 95 °F (2004)
Min Temperature 61 °F 55 °F 43 °F (1953)
Cooling Degree Days 8    
Growing Degree Days 22 (Base 50)    
Moisture  
Dew Point 50 °F    
Average Humidity 48    
Maximum Humidity 72    
Minimum Humidity 26    
Precipitation  
Precipitation 0.00 in - - ()
Sea Level Pressure  
Sea Level Pressure 30.03 in    
Wind  
Wind Speed 3 mph (NW)    
Max Wind Speed 9 mph    
Max Gust Speed -    
Visibility 10 miles    
Events      
Averages and records for this station are not official NWS values.
T = Trace of Precipitation, MM = Missing Value Source: NWS Daily Summary

Daily Weather History Graph

Daily Weather History Graph

Search for Another Location

Airport or City:

Trip Planner

Search our weather history database for the weather conditions in past years. The results will help you decide how hot, cold, wet, or windy it might be!

Date:

Astronomy

Jul. 24, 2013 Rise Set
Actual Time 5:37 AM PDT 8:53 PM PDT
Civil Twilight 5:00 AM PDT 9:30 PM PDT
Nautical Twilight 4:11 AM PDT 10:18 PM PDT
Astronomical Twilight 3:09 AM PDT 11:19 PM PDT
Moon 9:44 PM PDT (7/24) 8:18 AM PDT (7/24)
Length of Visible Light 16h 29m
Length of Day
15h 15m
Waning Gibbous, 94% of the Moon is Illuminated
Jul 24
Waning Gibbous
Jul 29
Last Quarter
Aug 6
New
Aug 14
First Quarter
Aug 20
Full

Hourly Weather History & Observations

Time (PDT) Temp. Dew Point Humidity Pressure Visibility Wind Dir Wind Speed Gust Speed Precip Events Conditions
12:53 AM 69.1 °F 54.0 °F 58% 30.02 in 10.0 mi Calm Calm - N/A   Clear
1:53 AM 68.0 °F 54.0 °F 61% 30.02 in 10.0 mi Calm Calm - N/A   Clear
2:53 AM 66.0 °F 53.1 °F 63% 30.02 in 10.0 mi NNW 4.6 mph - N/A   Clear
3:53 AM 63.0 °F 52.0 °F 67% 30.04 in 10.0 mi Calm Calm - N/A   Clear
4:53 AM 61.0 °F 52.0 °F 72% 30.04 in 10.0 mi Calm Calm - N/A   Clear
5:53 AM 61.0 °F 52.0 °F 72% 30.05 in 10.0 mi North 8.1 mph - N/A   Clear
6:53 AM 62.1 °F 53.1 °F 72% 30.06 in 10.0 mi NW 3.5 mph - N/A   Clear
7:53 AM 64.0 °F 53.1 °F 67% 30.06 in 10.0 mi NNW 4.6 mph - N/A   Clear
8:53 AM 66.9 °F 54.0 °F 63% 30.06 in 10.0 mi NW 4.6 mph - N/A   Clear
9:53 AM 71.1 °F 54.0 °F 55% 30.05 in 10.0 mi WNW 4.6 mph - N/A   Clear
10:53 AM 75.0 °F 54.0 °F 48% 30.04 in 10.0 mi Calm Calm - N/A   Clear
11:53 AM 75.9 °F 54.0 °F 46% 30.05 in 10.0 mi Variable 5.8 mph - N/A   Partly Cloudy
12:53 PM 78.1 °F 51.1 °F 39% 30.04 in 10.0 mi Variable 6.9 mph - N/A   Clear
1:53 PM 81.0 °F 50.0 °F 34% 30.04 in 10.0 mi NNW 6.9 mph - N/A   Clear
2:53 PM 82.0 °F 48.9 °F 31% 30.03 in 10.0 mi Variable 4.6 mph - N/A   Clear
3:53 PM 82.9 °F 46.9 °F 28% 30.02 in 10.0 mi NW 9.2 mph - N/A   Clear
4:53 PM 84.9 °F 46.0 °F 26% 30.00 in 10.0 mi NNW 8.1 mph - N/A   Clear
5:53 PM 84.0 °F 46.0 °F 26% 30.00 in 10.0 mi NW 6.9 mph - N/A   Clear
6:53 PM 81.0 °F 46.9 °F 30% 29.99 in 10.0 mi WNW 6.9 mph - N/A   Partly Cloudy
7:53 PM 80.1 °F 48.0 °F 32% 30.00 in 10.0 mi Calm Calm - N/A   Clear
8:53 PM 79.0 °F 43.0 °F 28% 30.01 in 10.0 mi Variable 3.5 mph - N/A   Clear
9:53 PM 75.0 °F 48.9 °F 40% 30.02 in 10.0 mi Calm Calm - N/A   Clear
10:53 PM 73.0 °F 46.9 °F 39% 30.03 in 10.0 mi Calm Calm - N/A   Clear
11:53 PM 70.0 °F 46.9 °F 44% 30.03 in 10.0 mi Calm Calm - N/A   Clear